Data,Hora,Valor
2021-06-01,01:00,0.96
2021-06-01,01:30,0.97
2021-06-01,02:00,0.97
2021-06-01,02:30,0.97
2021-06-01,03:00,0.97
2021-06-01,03:30,0.97
2021-06-01,04:00,0.96
2021-06-01,04:30,0.95
2021-06-01,05:00,0.95
2021-06-01,05:30,0.94
2021-06-01,06:00,0.94
2021-06-01,06:30,0.93
2021-06-01,07:00,0.94
2021-06-01,07:30,0.95
2021-06-01,08:00,0.96
2021-06-01,08:30,0.97
2021-06-01,09:00,0.97
2021-06-01,09:30,0.97
2021-06-01,10:00,0.97
2021-06-01,10:30,0.96
2021-06-01,11:00,0.95
2021-06-01,11:30,0.95
2021-06-01,12:00,0.94
2021-06-01,12:30,0.94
2021-06-01,13:00,0.94
2021-06-01,13:30,0.95
2021-06-01,14:00,0.96
2021-06-01,14:30,0.96
2021-06-01,15:00,0.96
2021-06-01,15:30,0.96
2021-06-01,16:00,0.96
2021-06-01,16:30,0.95
2021-06-01,17:00,0.95
2021-06-01,17:30,0.94
2021-06-01,18:00,0.94
2021-06-01,18:30,0.94
2021-06-01,19:00,0.96
2021-06-01,19:30,0.97
2021-06-01,20:00,0.99
2021-06-01,20:30,0.99
2021-06-01,21:00,1.0
2021-06-01,21:30,1.0
2021-06-01,22:00,0.99
2021-06-01,22:30,0.98
2021-06-01,23:00,0.98
2021-06-01,23:30,0.96
2021-06-01,00:00,0.96
2021-06-01,00:30,0.95
2021-06-02,01:00,0.96
2021-06-02,01:30,0.96
2021-06-02,02:00,0.97
2021-06-02,02:30,0.97
2021-06-02,03:00,0.97
2021-06-02,03:30,0.97
2021-06-02,04:00,0.96
2021-06-02,04:30,0.96
2021-06-02,05:00,0.96
2021-06-02,05:30,0.96
2021-06-02,06:00,0.97
2021-06-02,06:30,0.97
2021-06-02,07:00,0.97
2021-06-02,07:30,0.98
2021-06-02,08:00,0.98
2021-06-02,08:30,0.98
2021-06-02,09:00,0.98
2021-06-02,09:30,0.98
2021-06-02,10:00,0.97
2021-06-02,10:30,0.96
2021-06-02,11:00,0.95
2021-06-02,11:30,0.95
2021-06-02,12:00,0.94
2021-06-02,12:30,0.94
2021-06-02,13:00,0.94
2021-06-02,13:30,0.95
2021-06-02,14:00,0.96
2021-06-02,14:30,0.96
2021-06-02,15:00,0.97
2021-06-02,15:30,0.96
2021-06-02,16:00,0.96
2021-06-02,16:30,0.95
2021-06-02,17:00,0.94
2021-06-02,17:30,0.94
2021-06-02,18:00,0.93
2021-06-02,18:30,0.93
2021-06-02,19:00,0.95
2021-06-02,19:30,0.96
2021-06-02,20:00,0.98
2021-06-02,20:30,0.99
2021-06-02,21:00,0.99
2021-06-02,21:30,0.99
2021-06-02,22:00,0.99
2021-06-02,22:30,0.98
2021-06-02,23:00,0.97
2021-06-02,23:30,0.96
2021-06-02,00:00,0.96
2021-06-02,00:30,0.95
2021-06-03,01:00,0.95
2021-06-03,01:30,0.96
2021-06-03,02:00,0.96
2021-06-03,02:30,0.97
2021-06-03,03:00,0.97
2021-06-03,03:30,0.96
2021-06-03,04:00,0.96
2021-06-03,04:30,0.95
2021-06-03,05:00,0.94
2021-06-03,05:30,0.94
2021-06-03,06:00,0.94
2021-06-03,06:30,0.94
2021-06-03,07:00,0.95
2021-06-03,07:30,0.97
2021-06-03,08:00,0.97
2021-06-03,08:30,0.98
2021-06-03,09:00,0.98
2021-06-03,09:30,0.98
2021-06-03,10:00,0.97
2021-06-03,10:30,0.96
2021-06-03,11:00,0.95
2021-06-03,11:30,0.94
2021-06-03,12:00,0.93
2021-06-03,12:30,0.93
2021-06-03,13:00,0.93
2021-06-03,13:30,0.94
2021-06-03,14:00,0.95
2021-06-03,14:30,0.95
2021-06-03,15:00,0.95
2021-06-03,15:30,0.95
2021-06-03,16:00,0.94
2021-06-03,16:30,0.94
2021-06-03,17:00,0.93
2021-06-03,17:30,0.93
2021-06-03,18:00,0.92
2021-06-03,18:30,0.92
2021-06-03,19:00,0.92
2021-06-03,19:30,0.93
2021-06-03,20:00,0.95
2021-06-03,20:30,0.96
2021-06-03,21:00,0.97
2021-06-03,21:30,0.97
2021-06-03,22:00,0.97
2021-06-03,22:30,0.96
2021-06-03,23:00,0.96
2021-06-03,23:30,0.95
2021-06-03,00:00,0.94
2021-06-03,00:30,0.93
2021-06-04,01:00,0.93
2021-06-04,01:30,0.93
2021-06-04,02:00,0.94
2021-06-04,02:30,0.94
2021-06-04,03:00,0.94
2021-06-04,03:30,0.94
2021-06-04,04:00,0.93
2021-06-04,04:30,0.93
2021-06-04,05:00,0.92
2021-06-04,05:30,0.92
2021-06-04,06:00,0.91
2021-06-04,06:30,0.91
2021-06-04,07:00,0.92
2021-06-04,07:30,0.93
2021-06-04,08:00,0.94
2021-06-04,08:30,0.95
2021-06-04,09:00,0.95
2021-06-04,09:30,0.95
2021-06-04,10:00,0.95
2021-06-04,10:30,0.94
2021-06-04,11:00,0.93
2021-06-04,11:30,0.92
2021-06-04,12:00,0.91
2021-06-04,12:30,0.91
2021-06-04,13:00,0.91
2021-06-04,13:30,0.91
2021-06-04,14:00,0.92
2021-06-04,14:30,0.92
2021-06-04,15:00,0.92
2021-06-04,15:30,0.92
2021-06-04,16:00,0.92
2021-06-04,16:30,0.92
2021-06-04,17:00,0.91
2021-06-04,17:30,0.91
2021-06-04,18:00,0.9
2021-06-04,18:30,0.9
2021-06-04,19:00,0.9
2021-06-04,19:30,0.92
2021-06-04,20:00,0.94
2021-06-04,20:30,0.95
2021-06-04,21:00,0.96
2021-06-04,21:30,0.96
2021-06-04,22:00,0.96
2021-06-04,22:30,0.95
2021-06-04,23:00,0.95
2021-06-04,23:30,0.93
2021-06-04,00:00,0.92
2021-06-04,00:30,0.91
2021-06-05,01:00,0.91
2021-06-05,01:30,0.9
2021-06-05,02:00,0.9
2021-06-05,02:30,0.9
2021-06-05,03:00,0.9
2021-06-05,03:30,0.9
2021-06-05,04:00,0.9
2021-06-05,04:30,0.89
2021-06-05,05:00,0.89
2021-06-05,05:30,0.89
2021-06-05,06:00,0.88
2021-06-05,06:30,0.88
2021-06-05,07:00,0.89
2021-06-05,07:30,0.9
2021-06-05,08:00,0.91
2021-06-05,08:30,0.92
2021-06-05,09:00,0.92
2021-06-05,09:30,0.92
2021-06-05,10:00,0.92
2021-06-05,10:30,0.92
2021-06-05,11:00,0.91
2021-06-05,11:30,0.9
2021-06-05,12:00,0.9
2021-06-05,12:30,0.89
2021-06-05,13:00,0.89
2021-06-05,13:30,0.89
2021-06-05,14:00,0.89
2021-06-05,14:30,0.9
2021-06-05,15:00,0.9
2021-06-05,15:30,0.9
2021-06-05,16:00,0.9
2021-06-05,16:30,0.9
2021-06-05,17:00,0.89
2021-06-05,17:30,0.89
2021-06-05,18:00,0.89
2021-06-05,18:30,0.88
2021-06-05,19:00,0.88
2021-06-05,19:30,0.88
2021-06-05,20:00,0.89
2021-06-05,20:30,0.9
2021-06-05,21:00,0.91
2021-06-05,21:30,0.92
2021-06-05,22:00,0.93
2021-06-05,22:30,0.92
2021-06-05,23:00,0.92
2021-06-05,23:30,0.91
2021-06-05,00:00,0.91
2021-06-05,00:30,0.9
2021-06-06,01:00,0.89
2021-06-06,01:30,0.89
2021-06-06,02:00,0.89
2021-06-06,02:30,0.89
2021-06-06,03:00,0.9
2021-06-06,03:30,0.9
2021-06-06,04:00,0.9
2021-06-06,04:30,0.89
2021-06-06,05:00,0.89
2021-06-06,05:30,0.88
2021-06-07,09:30,0.89
2021-06-07,10:00,0.89
2021-06-07,10:30,0.88
2021-06-07,11:00,0.88
2021-06-07,11:30,0.87
2021-06-07,12:00,0.87
2021-06-07,12:30,0.87
2021-06-07,13:00,0.86
2021-06-07,13:30,0.86
2021-06-07,14:00,0.86
2021-06-07,14:30,0.86
2021-06-07,15:00,0.86
2021-06-07,15:30,0.87
2021-06-07,16:00,0.87
2021-06-07,16:30,0.87
2021-06-07,17:00,0.87
2021-06-07,17:30,0.86
2021-06-07,18:00,0.86
2021-06-07,18:30,0.86
2021-06-07,19:00,0.85
2021-06-07,19:30,0.85
2021-06-07,20:00,0.85
2021-06-07,20:30,0.86
2021-06-07,21:00,0.86
2021-06-07,21:30,0.87
2021-06-07,22:00,0.87
2021-06-07,22:30,0.87
2021-06-07,23:00,0.87
2021-06-07,23:30,0.86
2021-06-07,00:00,0.86
2021-06-07,00:30,0.87
2021-06-08,01:00,0.87
2021-06-08,01:30,0.87
2021-06-08,02:00,0.88
2021-06-08,02:30,0.88
2021-06-08,03:00,0.89
2021-06-08,03:30,0.89
2021-06-08,04:00,0.89
2021-06-08,04:30,0.88
2021-06-08,05:00,0.88
2021-06-08,05:30,0.87
2021-06-08,06:00,0.87
2021-06-08,06:30,0.86
2021-06-08,07:00,0.86
2021-06-08,07:30,0.85
2021-06-08,08:00,0.85
2021-06-08,08:30,0.86
2021-06-08,09:00,0.86
2021-06-08,09:30,0.87
2021-06-08,10:00,0.87
2021-06-08,10:30,0.87
2021-06-08,11:00,0.87
2021-06-08,11:30,0.86
2021-06-08,12:00,0.86
2021-06-08,12:30,0.85
2021-06-08,13:00,0.85
2021-06-08,13:30,0.84
2021-06-08,14:00,0.84
2021-06-08,14:30,0.85
2021-06-08,15:00,0.85
2021-06-08,15:30,0.85
2021-06-08,16:00,0.85
2021-06-08,16:30,0.85
2021-06-08,17:00,0.85
2021-06-08,17:30,0.85
2021-06-08,18:00,0.85
2021-06-08,18:30,0.84
2021-06-08,19:00,0.84
2021-06-08,19:30,0.84
2021-06-08,20:00,0.84
2021-06-08,20:30,0.84
2021-06-08,21:00,0.85
2021-06-08,21:30,0.85
2021-06-08,22:00,0.85
2021-06-08,22:30,0.85
2021-06-08,23:00,0.85
2021-06-08,23:30,0.85
2021-06-08,00:00,0.85
2021-06-08,00:30,0.84
2021-06-09,01:00,0.84
2021-06-09,01:30,0.85
2021-06-09,02:00,0.86
2021-06-09,02:30,0.86
2021-06-09,03:00,0.87
2021-06-09,03:30,0.87
2021-06-09,04:00,0.87
2021-06-09,04:30,0.87
2021-06-09,05:00,0.87
2021-06-09,05:30,0.87
2021-06-09,06:00,0.86
2021-06-09,06:30,0.85
2021-06-09,07:00,0.85
2021-06-09,07:30,0.84
2021-06-09,08:00,0.84
2021-06-09,08:30,0.84
2021-06-09,09:00,0.84
2021-06-09,09:30,0.85
2021-06-09,10:00,0.85
2021-06-09,10:30,0.85
2021-06-09,11:00,0.85
2021-06-09,11:30,0.85
2021-06-09,12:00,0.84
2021-06-09,12:30,0.84
2021-06-09,13:00,0.83
2021-06-09,13:30,0.83
2021-06-09,14:00,0.83
2021-06-09,14:30,0.83
2021-06-09,15:00,0.83
2021-06-09,15:30,0.84
2021-06-09,16:00,0.84
2021-06-09,16:30,0.84
2021-06-09,17:00,0.84
2021-06-09,17:30,0.84
2021-06-09,18:00,0.84
2021-06-09,18:30,0.83
2021-06-09,19:00,0.83
2021-06-09,19:30,0.83
2021-06-09,20:00,0.83
2021-06-09,20:30,0.83
2021-06-09,21:00,0.83
2021-06-09,21:30,0.84
2021-06-09,22:00,0.84
2021-06-09,22:30,0.84
2021-06-09,23:00,0.84
2021-06-09,23:30,0.84
2021-06-09,00:00,0.84
2021-06-09,00:30,0.83
2021-06-10,01:00,0.83
2021-06-10,01:30,0.83
2021-06-10,02:00,0.82
2021-06-10,02:30,0.82
2021-06-10,03:00,0.83
2021-06-10,03:30,0.83
2021-06-10,04:00,0.83
2021-06-10,04:30,0.84
2021-06-10,05:00,0.84
2021-06-10,05:30,0.85
2021-06-10,06:00,0.85
2021-06-10,06:30,0.85
2021-06-10,07:00,0.85
2021-06-10,07:30,0.85
2021-06-10,08:00,0.85
2021-06-10,08:30,0.84
2021-06-10,09:00,0.84
2021-06-10,09:30,0.84
2021-06-10,10:00,0.84
2021-06-10,10:30,0.84
2021-06-10,11:00,0.84
2021-06-10,11:30,0.84
2021-06-10,12:00,0.83
2021-06-10,12:30,0.83
2021-06-10,13:00,0.83
2021-06-10,13:30,0.82
2021-06-10,14:00,0.82
2021-06-10,14:30,0.82
2021-06-10,15:00,0.82
2021-06-10,15:30,0.82
2021-06-10,16:00,0.83
2021-06-10,16:30,0.83
2021-06-10,17:00,0.83
2021-06-10,17:30,0.82
2021-06-10,18:00,0.82
2021-06-10,18:30,0.82
2021-06-10,19:00,0.82
2021-06-10,19:30,0.81
2021-06-10,20:00,0.81
2021-06-10,20:30,0.81
2021-06-10,21:00,0.82
2021-06-10,21:30,0.82
2021-06-10,22:00,0.82
2021-06-10,22:30,0.82
2021-06-10,23:00,0.83
2021-06-10,23:30,0.82
2021-06-10,00:00,0.82
2021-06-10,00:30,0.82
2021-06-11,01:00,0.82
2021-06-11,01:30,0.81
2021-06-11,02:00,0.81
2021-06-11,02:30,0.81
2021-06-11,03:00,0.82
2021-06-11,03:30,0.83
2021-06-11,04:00,0.84
2021-06-11,04:30,0.84
2021-06-11,05:00,0.84
2021-06-11,05:30,0.84
2021-06-11,06:00,0.84
2021-06-11,06:30,0.84
2021-06-11,07:00,0.83
2021-06-11,07:30,0.83
2021-06-11,08:00,0.82
2021-06-11,08:30,0.82
2021-06-11,09:00,0.82
2021-06-11,09:30,0.82
2021-06-11,10:00,0.82
2021-06-11,10:30,0.82
2021-06-11,11:00,0.82
2021-06-11,11:30,0.82
2021-06-11,12:00,0.82
2021-06-11,12:30,0.82
2021-06-11,13:00,0.81
2021-06-11,13:30,0.81
2021-06-11,14:00,0.81
2021-06-11,14:30,0.81
2021-06-11,15:00,0.81
2021-06-11,15:30,0.81
2021-06-11,16:00,0.81
2021-06-11,16:30,0.81
2021-06-11,17:00,0.81
2021-06-11,17:30,0.81
2021-06-11,18:00,0.81
2021-06-11,18:30,0.81
2021-06-11,19:00,0.81
2021-06-11,19:30,0.8
2021-06-11,20:00,0.8
2021-06-11,20:30,0.8
2021-06-11,21:00,0.8
2021-06-11,21:30,0.81
2021-06-11,22:00,0.81
2021-06-11,22:30,0.81
2021-06-11,23:00,0.81
2021-06-11,23:30,0.81
2021-06-11,00:00,0.81
2021-06-11,00:30,0.81
2021-06-12,01:00,0.81
2021-06-12,01:30,0.8
2021-06-12,02:00,0.8
2021-06-12,02:30,0.8
2021-06-12,03:00,0.8
2021-06-12,03:30,0.81
2021-06-12,04:00,0.82
2021-06-12,04:30,0.83
2021-06-12,05:00,0.84
2021-06-12,05:30,0.84
2021-06-12,06:00,0.84
2021-06-12,06:30,0.84
2021-06-12,07:00,0.83
2021-06-12,07:30,0.82
2021-06-12,08:00,0.82
2021-06-12,08:30,0.82
2021-06-12,09:00,0.81
2021-06-12,09:30,0.81
2021-06-12,10:00,0.81
2021-06-12,10:30,0.81
2021-06-12,11:00,0.81
2021-06-12,11:30,0.81
2021-06-12,12:00,0.81
2021-06-12,12:30,0.81
2021-06-12,13:00,0.81
2021-06-12,13:30,0.8
2021-06-12,14:00,0.8
2021-06-12,14:30,0.8
2021-06-12,15:00,0.79
2021-06-12,15:30,0.79
2021-06-12,16:00,0.79
2021-06-12,16:30,0.78
2021-06-12,17:00,0.78
2021-06-12,17:30,0.78
2021-06-12,18:00,0.78
2021-06-12,18:30,0.78
2021-06-12,19:00,0.78
2021-06-12,19:30,0.78
2021-06-12,20:00,0.78
2021-06-12,20:30,0.79
2021-06-12,21:00,0.8
2021-06-12,21:30,0.81
2021-06-12,22:00,0.82
2021-06-12,22:30,0.85
2021-06-12,23:00,0.85
2021-06-12,23:30,0.84
2021-06-12,00:00,0.84
2021-06-12,00:30,0.84
2021-06-13,01:00,0.83
2021-06-13,01:30,0.83
2021-06-13,02:00,0.83
2021-06-13,02:30,0.82
2021-06-13,03:00,0.82
2021-06-13,03:30,0.82
2021-06-13,04:00,0.82
2021-06-13,04:30,0.82
2021-06-13,05:00,0.82
2021-06-13,05:30,0.83
2021-06-07,06:00,0.86
2021-06-07,06:30,0.86
2021-06-07,07:00,0.86
2021-06-07,07:30,0.86
2021-06-07,08:00,0.87
2021-06-07,08:30,0.88
2021-06-07,09:00,0.88
2021-06-13,06:00,0.84
2021-06-13,06:30,0.84
2021-06-13,07:00,0.84
2021-06-13,07:30,0.85
2021-06-13,08:00,0.85
2021-06-13,08:30,0.86
2021-06-13,09:00,0.87
2021-06-13,09:30,0.87
2021-06-13,10:00,0.88
2021-06-13,10:30,0.88
2021-06-13,11:00,0.87
2021-06-13,11:30,0.87
2021-06-13,12:00,0.87
2021-06-13,12:30,0.86
2021-06-13,13:00,0.86
2021-06-13,13:30,0.85
2021-06-13,14:00,0.85
2021-06-13,14:30,0.84
2021-06-13,15:00,0.84
2021-06-13,15:30,0.84
2021-06-13,16:00,0.83
2021-06-13,16:30,0.83
2021-06-13,17:00,0.83
2021-06-13,17:30,0.83
2021-06-13,18:00,0.85
2021-06-13,18:30,0.88
2021-06-13,19:00,0.92
2021-06-13,19:30,0.94
2021-06-13,20:00,0.95
2021-06-13,20:30,0.96
2021-06-13,21:00,0.96
2021-06-13,21:30,0.97
2021-06-13,22:00,0.96
2021-06-13,22:30,0.95
2021-06-13,23:00,0.94
2021-06-13,23:30,0.93
2021-06-13,00:00,0.91
2021-06-13,00:30,0.9
2021-06-14,01:00,0.89
2021-06-14,01:30,0.88
2021-06-14,02:00,0.87
2021-06-14,02:30,0.87
2021-06-14,03:00,0.87
2021-06-14,03:30,0.87
2021-06-14,04:00,0.88
2021-06-14,04:30,0.88
2021-06-14,05:30,0.88
2021-06-14,06:00,0.87
2021-06-14,06:30,0.87
2021-06-14,07:00,0.87
2021-06-14,07:30,0.87
2021-06-14,08:00,0.87
2021-06-14,08:30,0.87
2021-06-14,09:00,0.87
2021-06-14,09:30,0.87
2021-06-14,10:00,0.87
2021-06-14,10:30,0.86
2021-06-14,11:00,0.85
2021-06-14,11:30,0.85
2021-06-14,12:00,0.84
2021-06-14,12:30,0.83
2021-06-14,13:00,0.83
2021-06-14,13:30,0.82
2021-06-14,14:00,0.82
2021-06-14,14:30,0.83
2021-06-14,15:00,0.84
2021-06-14,15:30,0.85
2021-06-14,16:00,0.85
2021-06-16,14:00,0.81
2021-06-16,14:30,0.81
2021-06-16,15:00,0.81
2021-06-16,15:30,0.81
2021-06-16,16:00,0.81
2021-06-16,16:30,0.82
2021-06-16,17:00,0.82
2021-06-16,17:30,0.82
2021-06-16,18:00,0.82
2021-06-16,18:30,0.81
2021-06-16,19:00,0.81
2021-06-16,19:30,0.81
2021-06-16,20:00,0.81
2021-06-16,20:30,0.8
2021-06-16,21:00,0.8
2021-06-16,21:30,0.81
2021-06-16,22:00,0.81
2021-06-16,22:30,0.81
2021-06-16,23:00,0.82
2021-06-16,23:30,0.83
2021-06-16,00:00,0.83
2021-06-16,00:30,0.84
2021-06-17,01:00,0.84
2021-06-17,01:30,0.84
2021-06-17,02:00,0.84
2021-06-17,02:30,0.84
2021-06-17,03:00,0.84
2021-06-17,03:30,0.84
2021-06-17,04:00,0.84
2021-06-17,04:30,0.84
2021-06-17,05:00,0.83
2021-06-17,05:30,0.83
2021-06-17,06:00,0.83
2021-06-17,06:30,0.82
2021-06-17,07:00,0.82
2021-06-17,07:30,0.81
2021-06-17,08:00,0.81
2021-06-17,08:30,0.81
2021-06-17,09:00,0.81
2021-06-17,09:30,0.81
2021-06-17,10:00,0.81
2021-06-17,10:30,0.81
2021-06-17,11:00,0.81
2021-06-17,11:30,0.81
2021-06-17,12:00,0.81
2021-06-17,12:30,0.81
2021-06-17,13:00,0.81
2021-06-17,13:30,0.8
2021-06-17,14:00,0.8
2021-06-17,14:30,0.8
2021-06-17,15:00,0.8
2021-06-17,15:30,0.8
2021-06-17,16:00,0.81
2021-06-17,16:30,0.81
2021-06-17,17:00,0.81
2021-06-17,17:30,0.82
2021-06-17,18:00,0.82
2021-06-17,18:30,0.81
2021-06-17,19:00,0.81
2021-06-17,19:30,0.81
2021-06-17,20:00,0.8
2021-06-17,20:30,0.8
2021-06-17,21:00,0.8
2021-06-17,21:30,0.81
2021-06-17,22:00,0.81
2021-06-17,22:30,0.82
2021-06-17,23:00,0.82
2021-06-17,23:30,0.83
2021-06-17,00:00,0.83
2021-06-17,00:30,0.84
2021-06-18,01:00,0.84
2021-06-18,01:30,0.84
2021-06-18,02:00,0.84
2021-06-18,02:30,0.84
2021-06-18,03:00,0.84
2021-06-18,03:30,0.84
2021-06-18,04:00,0.84
2021-06-18,04:30,0.84
2021-06-18,05:00,0.84
2021-06-18,05:30,0.84
2021-06-18,06:00,0.83
2021-06-18,06:30,0.83
2021-06-18,07:00,0.82
2021-06-18,07:30,0.82
2021-06-18,08:00,0.81
2021-06-18,08:30,0.81
2021-06-18,09:00,0.81
2021-06-18,09:30,0.81
2021-06-18,10:00,0.82
2021-06-18,10:30,0.82
2021-06-18,11:00,0.82
2021-06-18,11:30,0.82
2021-06-18,12:00,0.82
2021-06-18,12:30,0.82
2021-06-18,13:00,0.81
2021-06-18,13:30,0.81
2021-06-18,14:00,0.81
2021-06-18,14:30,0.81
2021-06-18,15:00,0.81
2021-06-18,15:30,0.81
2021-06-18,16:00,0.81
2021-06-18,16:30,0.81
2021-06-18,17:00,0.82
2021-06-18,17:30,0.81
2021-06-18,18:00,0.81
2021-06-18,18:30,0.8
2021-06-18,19:00,0.8
2021-06-18,19:30,0.8
2021-06-18,20:00,0.8
2021-06-18,20:30,0.79
2021-06-18,21:00,0.8
2021-06-18,21:30,0.8
2021-06-18,22:00,0.81
2021-06-18,22:30,0.82
2021-06-18,23:00,0.83
2021-06-18,23:30,0.84
2021-06-18,00:00,0.85
2021-06-18,00:30,0.85
2021-06-19,01:00,0.85
2021-06-19,01:30,0.85
2021-06-19,02:00,0.84
2021-06-19,02:30,0.84
2021-06-19,03:00,0.84
2021-06-19,03:30,0.84
2021-06-19,04:00,0.84
2021-06-19,04:30,0.84
2021-06-19,05:00,0.84
2021-06-19,05:30,0.84
2021-06-19,06:00,0.83
2021-06-19,06:30,0.83
2021-06-19,07:00,0.82
2021-06-19,07:30,0.82
2021-06-19,08:00,0.82
2021-06-19,08:30,0.81
2021-06-19,09:00,0.82
2021-06-19,09:30,0.82
2021-06-19,10:00,0.82
2021-06-19,10:30,0.82
2021-06-19,11:00,0.82
2021-06-19,11:30,0.82
2021-06-19,12:00,0.82
2021-06-19,12:30,0.82
2021-06-19,13:00,0.81
2021-06-19,13:30,0.81
2021-06-19,14:00,0.81
2021-06-19,14:30,0.81
2021-06-19,15:00,0.81
2021-06-19,15:30,0.81
2021-06-19,16:00,0.82
2021-06-19,16:30,0.82
2021-06-19,17:00,0.82
2021-06-19,17:30,0.82
2021-06-19,18:00,0.82
2021-06-19,18:30,0.81
2021-06-19,19:00,0.81
2021-06-19,19:30,0.81
2021-06-19,20:00,0.81
2021-06-19,20:30,0.81
2021-06-19,21:00,0.81
2021-06-19,21:30,0.81
2021-06-19,22:00,0.82
2021-06-19,22:30,0.83
2021-06-19,23:00,0.84
2021-06-19,23:30,0.85
2021-06-19,00:00,0.85
2021-06-19,00:30,0.85
2021-06-20,01:00,0.84
2021-06-20,01:30,0.84
2021-06-20,02:00,0.83
2021-06-20,02:30,0.83
2021-06-20,03:00,0.84
2021-06-20,03:30,0.84
2021-06-20,04:00,0.85
2021-06-20,04:30,0.86
2021-06-20,05:00,0.86
2021-06-20,05:30,0.86
2021-06-20,06:00,0.85
2021-06-20,06:30,0.85
